T Black Aviation
T Black Aviation Training School
T Black Aviation Cessna Pilot Center

We Give All FAA, FCC, and NCATT Written Exams

Accelerated Aviation Academics®

Come See Our New 2014 G1000 Cessna 172!

RSVP for Customer Appreciation Pancake Breakfast September 20, 8am – 11am at T Black Aviation at KPIE
Aircraft Electronics Technician (AET) Logo

National Center for Aerospace & Transportation Technologies (NCATT)

One week course September 1-5, 2014

T Black Aviation guarantees that if you fail any of the written tests, after completing our course, you may return to our school, up to ten years from the date of the initial course, for additional training (sit in on the current course) until you receive your designated rating.

CATS Testing Center at T Black Aviation

Current METAR for KPIE

KPIE 291753Z 25009KT 10SM SCT030 33/24 A3003 RMK AO2 LTG DSNT E AND SE SLP169 T03280244 10333 20272 56008

Coming Soon to T Black Aviation